Location: Evansville
(37.9747°N, 87.5558°W)
Time: 19:35:12
(UTC-06:00)

ARIANE 6 FM1 Upper Stage - Pass Details

Date: 15 December 2025
Orbit: 522 x 610 km, 62.0° (Epoch: 13 January)

Event Time Altitude Azimuth Distance (km) Brightness Sun altitude
Rises 05:16:53 0° 199° (SSW) 2,708 6.1 -19.5°
Reaches altitude 10° 05:19:10 10° 193° (SSW) 1,804 5.3 -19.0°
Maximum altitude 05:23:02 45° 120° (ESE) 732 3.7 -18.3°
Drops below altitude 10° 05:26:51 10° 47° (NE) 1,777 5.6 -17.6°
Sets 05:29:05 0° 41° (NE) 2,662 6.5 -17.2°
